Weather History for Batman, Turkey

Change the Weather History Date:

Friday, July 26, 2013

  Actual Average (LTCC) Record (LTCC)
Temperature  
Mean Temperature 86 °F -  
Max Temperature 102 °F 101 °F 109 °F (2001)
Min Temperature 69 °F 72 °F 68 °F (2004)
Cooling Degree Days 20    
Growing Degree Days 36 (Base 50)    
Moisture  
Dew Point 44 °F    
Average Humidity 25    
Maximum Humidity 46    
Minimum Humidity 10    
Precipitation  
Precipitation 0.00 in - - ()
Sea Level Pressure  
Sea Level Pressure 29.50 in    
Wind  
Wind Speed 5 mph ()    
Max Wind Speed 12 mph    
Max Gust Speed -    
Visibility 6.2 miles    
Events      
Averages and records for this station are not official NWS values.
T = Trace of Precipitation, MM = Missing Value Source: Averaged Metar Reports

Daily Weather History Graph

Daily Weather History Graph

Search for Another Location

Airport:

Trip Planner

Search our weather history database for the weather conditions in past years. The results will help you decide how hot, cold, wet, or windy it might be!

Date:

Astronomy

Jul. 26, 2013 Rise Set
Actual Time 5:13 AM EEST 7:30 PM EEST
Civil Twilight 4:43 AM EEST 7:59 PM EEST
Nautical Twilight 4:07 AM EEST 8:36 PM EEST
Astronomical Twilight 3:27 AM EEST 9:15 PM EEST
Moon 9:37 PM EEST (7/26) 9:20 AM EEST (7/26)
Length of Visible Light 15h 15m
Length of Day
14h 16m
Waning Gibbous, 83% of the Moon is Illuminated
Jul 26
Waning Gibbous
Jul 29
Last Quarter
Aug 7
New
Aug 14
First Quarter
Aug 21
Full

Hourly Weather History & Observations

Time (EEST) Temp. Dew Point Humidity Pressure Visibility Wind Dir Wind Speed Gust Speed Precip Events Conditions
12:20 AM 78.8 °F 39.2 °F 24% 29.53 in - SSW 6.9 mph - N/A   Clear
12:50 AM 77.0 °F 42.8 °F 29% 29.53 in - WSW 5.8 mph - N/A   Clear
1:20 AM 75.2 °F 41.0 °F 29% 29.53 in - SSW 5.8 mph - N/A   Clear
1:50 AM 75.2 °F 41.0 °F 29% 29.53 in - SSE 4.6 mph - N/A   Clear
2:20 AM 73.4 °F 41.0 °F 31% 29.53 in - SSW 5.8 mph - N/A   Clear
2:50 AM 73.4 °F 41.0 °F 31% 29.53 in - Variable 1.2 mph - N/A   Clear
3:20 AM 73.4 °F 42.8 °F 33% 29.53 in - Calm Calm - N/A   Clear
3:50 AM 73.4 °F 42.8 °F 33% 29.53 in - Calm Calm - N/A   Clear
4:20 AM 71.6 °F 42.8 °F 35% 29.53 in - Variable 2.3 mph - N/A   Clear
4:50 AM 71.6 °F 44.6 °F 38% 29.53 in - SSE 3.5 mph - N/A   Clear
5:20 AM 69.8 °F 44.6 °F 40% 29.53 in - South 5.8 mph - N/A   Clear
5:50 AM 69.8 °F 48.2 °F 46% 29.56 in - SSW 3.5 mph - N/A   Clear
6:20 AM 73.4 °F 46.4 °F 38% 29.56 in - South 3.5 mph - N/A   Clear
6:50 AM 75.2 °F 44.6 °F 34% 29.56 in - South 4.6 mph - N/A   Clear
7:20 AM 77.0 °F 44.6 °F 32% 29.56 in - SSW 5.8 mph - N/A   Clear
7:50 AM 77.0 °F 44.6 °F 32% 29.56 in - WSW 6.9 mph - N/A   Clear
8:20 AM 78.8 °F 46.4 °F 32% 29.56 in - WSW 5.8 mph - N/A   Clear
8:50 AM 82.4 °F 46.4 °F 28% 29.56 in - WSW 9.2 mph - N/A   Clear
9:20 AM 84.2 °F 48.2 °F 29% 29.56 in - WSW 9.2 mph - N/A   Clear
9:50 AM 87.8 °F 46.4 °F 24% 29.53 in - WSW 6.9 mph - N/A   Clear
10:20 AM 89.6 °F 48.2 °F 24% 29.53 in - Variable 3.5 mph - N/A   Clear
10:50 AM 91.4 °F 50.0 °F 24% 29.53 in - SSW 6.9 mph - N/A   Clear
11:20 AM 95.0 °F 50.0 °F 22% 29.50 in - Variable 3.5 mph - N/A   Clear
11:50 AM 95.0 °F 48.2 °F 20% 29.50 in - West 5.8 mph - N/A   Clear
12:20 PM 96.8 °F 46.4 °F 18% 29.50 in - Variable 3.5 mph - N/A   Clear
12:50 PM 96.8 °F 48.2 °F 19% 29.50 in 6.2 mi SSW 8.1 mph - N/A   Partly Cloudy
1:20 PM 96.8 °F 48.2 °F 19% 29.50 in 6.2 mi SSW 9.2 mph - N/A   Partly Cloudy
1:50 PM 98.6 °F 50.0 °F 19% 29.47 in 6.2 mi SSW 9.2 mph - N/A   Partly Cloudy
2:20 PM 98.6 °F 48.2 °F 18% 29.47 in - SSW 11.5 mph - N/A   Clear
2:50 PM 100.4 °F 41.0 °F 13% 29.47 in 6.2 mi SSW 10.4 mph - N/A   Partly Cloudy
3:20 PM 100.4 °F 35.6 °F 11% 29.44 in 6.2 mi SSW 6.9 mph - N/A   Partly Cloudy
3:50 PM 102.2 °F 35.6 °F 10% 29.44 in - SSW 6.9 mph - N/A   Clear
4:20 PM 100.4 °F 41.0 °F 13% 29.44 in - SSW 9.2 mph - N/A   Clear
4:50 PM 100.4 °F 41.0 °F 13% 29.44 in - SW 8.1 mph - N/A   Clear
5:20 PM 98.6 °F 41.0 °F 14% 29.44 in - SW 11.5 mph - N/A   Clear
5:50 PM 98.6 °F 41.0 °F 14% 29.44 in - SW 10.4 mph - N/A   Clear
6:20 PM 95.0 °F 42.8 °F 16% 29.44 in - SW 9.2 mph - N/A   Clear
6:50 PM 91.4 °F 48.2 °F 23% 29.44 in - South 5.8 mph - N/A   Clear
7:20 PM 87.8 °F 44.6 °F 22% 29.44 in - SW 6.9 mph - N/A   Clear
7:50 PM 84.2 °F 44.6 °F 25% 29.44 in - SSW 6.9 mph - N/A   Clear
8:20 PM 82.4 °F 44.6 °F 26% 29.44 in - South 3.5 mph - N/A   Clear
8:50 PM 80.6 °F 42.8 °F 26% 29.44 in - South 5.8 mph - N/A   Clear
9:20 PM 80.6 °F 42.8 °F 26% 29.44 in - Variable 1.2 mph - N/A   Clear
9:50 PM 80.6 °F 42.8 °F 26% 29.44 in - Calm Calm - N/A   Clear
10:20 PM 78.8 °F 42.8 °F 28% 29.44 in - Calm Calm - N/A   Clear
10:50 PM 80.6 °F 37.4 °F 21% 29.47 in - SSE 4.6 mph - N/A   Clear
11:20 PM 80.6 °F 35.6 °F 20% 29.47 in - South 8.1 mph - N/A   Clear
11:50 PM 73.4 °F 42.8 °F 33% 29.47 in - Variable 2.3 mph - N/A   Clear